BREEZE-M DEB (TANK)

Satellite information

Favourite Embed

Satellite Type and Status

DEBRISIN ORBIT

Key statistics

Satellite BREEZE-M DEB (TANK) at a glance.

Uptime

4852

Days in orbit

Revolutions

≈ 5.5

Per day

Orbit

MEO

Medium Earth Orbit

Inclination

50.7

Latest

Satellite identification and parameters

Extended collection of information and parameters for BREEZE-M DEB (TANK).

Object identification

Identified? True

Debris? True

Object name: BREEZE-M DEB (TANK)

International designator: 2012-011C

Object number (NORAD): 38100

Object ID (CCSDS): 38100

Country: COMMONWEALTH OF INDEPENDENT STATES (CIS)

Current information (Y/N): Y

RCS size: LARGE

Orbital parameters

Period: 262.175 minutes

Inclination: 50.6671 deg

SMA: 13569.216 km

Apoapsis: 14003.982 km

Periapsis: 378.18 km

RAAN: 134.6904 deg

Eccentricy: 0.5020851

Argument of periapsis: 338.3494 deg

Mean anomaly: 6.2845 deg

Mean motion: 5.49250713 rev/day

Mean motion (dot): 0.00001476 rev/day2

B* drag term: 0.00068507 1/REarth

Two-line elements (TLE)

Creation date: July 5, 2025, 4:36 a.m.

Reference frame: TEME

Reference center: EARTH

Epoch: July 4, 2025, 4:47 p.m. UTC

TLE line 0: 0 BREEZE-M DEB (TANK)

TLE line 1: 1 38100U 12011C 25185.69985723 .00001476 00000-0 68507-3 0 9994

TLE line 2: 2 38100 50.6671 134.6904 5020851 338.3494 6.2845 5.49250713263272

Live tracking on map

Real-time ground track for satellite BREEZE-M DEB (TANK).

In-orbit conjunctions

There are no conjunctions computed for BREEZE-M DEB (TANK), at the moment. Check back to stay up to date, as we update our databases every day.

Go to all conjunctions

Associated space launch

BREEZE-M DEB (TANK) was lifted into orbit during the mission ‘Proton-M / Briz-M Enhanced | Intelsat 22’, on board a Proton-M space rocket.

The launch took place on March 25, 2012, 12:10 p.m. from 200/39 (200L).

For more information about the launch, click the button.

Launch to space Proton-M / Briz-M Enhanced | Intelsat 22
Proton-M / Briz-M Enhanced | Intelsat 22

Agency: N/A

Status: Launch Successful

Launch date: March 25, 2012, 12:10 p.m. UTC

Rocket: Proton-M

Launch pad: 200/39 (200L)

Location: Baikonur Cosmodrome, Republic of Kazakhstan

...

Latest news about this satellite

There are no fresh news available about this satellite. Check back as we update our databases every day.


Newsletter sign-up

Weekly statistics, charts and insights to help you stay on top of the space industry.